Weather History for KRHP - July, 2014

Change the Weather History Date:

Thursday, July 17, 2014

  Actual Average (KTYS) Record (KTYS)
Temperature  
Mean Temperature 66 °F 79 °F  
Max Temperature 79 °F 88 °F 101 °F (1980)
Min Temperature 52 °F 69 °F 57 °F (2014)
Degree Days  
Heating Degree Days 0 0  
Month to date heating degree days 0  
Since 1 June heating degree days 4  
Since 1 July heating degree days 0  
Cooling Degree Days 0 14  
Month to date cooling degree days 228  
Year to date cooling degree days 695  
Since 1 June cooling degree days 533  
Growing Degree Days 16 (Base 50)    
Moisture  
Dew Point 58 °F    
Average Humidity 80    
Maximum Humidity 99    
Minimum Humidity 54    
Precipitation  
Precipitation 0.00 in 0.18 in 2.59 in (1929)
Month to date precipitation 2.85  
Year to date precipitation 28.10  
Snow  
Snow 0.00 in 0.00 in - ()
Month to date snowfall 0.0  
Since 1 June snowfall 0.0  
Since 1 July snowfall 0.0  
Snow Depth -    
Sea Level Pressure  
Sea Level Pressure 30.07 in    
Wind  
Wind Speed 1 mph (WSW)    
Max Wind Speed 8 mph    
Max Gust Speed -    
Visibility 10 miles    
Events      
T = Trace of Precipitation, MM = Missing Value Source: NWS Daily Summary

Daily Weather History Graph

Daily Weather History Graph

Search for Another Location

Airport or City:

Trip Planner

Search our weather history database for the weather conditions in past years. The results will help you decide how hot, cold, wet, or windy it might be!

Date:

Astronomy

Jul. 17, 2014 Rise Set
Actual Time 6:33 AM EDT 8:49 PM EDT
Civil Twilight 6:04 AM EDT 9:18 PM EDT
Nautical Twilight 5:29 AM EDT 9:53 PM EDT
Astronomical Twilight 4:50 AM EDT 10:31 PM EDT
Moon No Moon Rise 12:28 PM EDT (7/17)
Length of Visible Light 15h 13m
Length of Day
14h 15m
Waning Gibbous, 66% of the Moon is Illuminated
Jul 17
Waning Gibbous
Jul 18
Last Quarter
Jul 26
New
Aug 3
First Quarter
Aug 10
Full

Hourly Weather History & Observations

Time (EDT) Temp. Dew Point Humidity Pressure Visibility Wind Dir Wind Speed Gust Speed Precip Events Conditions
12:15 AM 56.3 °F 54.5 °F 94% 30.04 in 10.0 mi Calm Calm - N/A   Clear
12:35 AM 55.6 °F 54.1 °F 95% 30.04 in 10.0 mi Calm Calm - N/A   Clear
12:55 AM 54.9 °F 53.4 °F 95% 30.04 in 10.0 mi Calm Calm - N/A   Scattered Clouds
1:15 AM 54.7 °F 53.2 °F 95% 30.03 in 10.0 mi Calm Calm - N/A   Scattered Clouds
1:35 AM 55.2 °F 52.9 °F 92% 30.03 in 10.0 mi Calm Calm - N/A   Clear
1:55 AM 54.1 °F 52.7 °F 95% 30.03 in 10.0 mi Calm Calm - N/A   Clear
2:15 AM 54.0 °F 52.7 °F 95% 30.03 in 10.0 mi Calm Calm - N/A   Clear
2:35 AM 54.0 °F 52.7 °F 95% 30.03 in 10.0 mi Calm Calm - N/A   Clear
2:55 AM 53.8 °F 52.7 °F 96% 30.04 in 10.0 mi Calm Calm - N/A   Scattered Clouds
3:15 AM 53.6 °F 52.7 °F 97% 30.03 in 10.0 mi Calm Calm - N/A   Scattered Clouds
3:35 AM 52.9 °F 52.3 °F 98% 30.03 in 10.0 mi Calm Calm - N/A   Clear
3:55 AM 52.9 °F 52.3 °F 98% 30.03 in 10.0 mi Calm Calm - N/A   Scattered Clouds
4:15 AM 52.9 °F 52.3 °F 98% 30.03 in 10.0 mi Calm Calm - N/A   Scattered Clouds
4:35 AM 53.2 °F 52.7 °F 98% 30.03 in 10.0 mi Calm Calm - N/A   Mostly Cloudy
4:55 AM 52.9 °F 52.3 °F 98% 30.04 in 10.0 mi Calm Calm - N/A   Mostly Cloudy
5:15 AM 52.7 °F 52.2 °F 98% 30.04 in 10.0 mi Calm Calm - N/A   Scattered Clouds
5:35 AM 53.2 °F 52.7 °F 98% 30.04 in 10.0 mi Calm Calm - N/A   Mostly Cloudy
5:55 AM 52.9 °F 52.3 °F 98% 30.05 in 10.0 mi Calm Calm - N/A   Mostly Cloudy
6:15 AM 52.3 °F 51.8 °F 98% 30.06 in 7.0 mi Calm Calm - N/A   Mostly Cloudy
6:35 AM 53.2 °F 52.9 °F 99% 30.06 in 7.0 mi Calm Calm - N/A   Overcast
6:55 AM 53.4 °F 52.7 °F 97% 30.06 in 10.0 mi Calm Calm - N/A   Overcast
7:15 AM 53.8 °F 52.9 °F 97% 30.06 in 10.0 mi Calm Calm - N/A   Mostly Cloudy
7:35 AM 54.3 °F 53.8 °F 98% 30.06 in 10.0 mi Calm Calm - N/A   Scattered Clouds
7:55 AM 55.6 °F 54.1 °F 95% 30.06 in 10.0 mi Calm Calm - N/A   Clear
8:15 AM 56.7 °F 54.1 °F 91% 30.07 in 10.0 mi Calm Calm - N/A   Clear
8:35 AM 58.6 °F 55.8 °F 90% 30.07 in 10.0 mi Calm Calm - N/A   Clear
8:55 AM 60.4 °F 56.1 °F 86% 30.07 in 10.0 mi Calm Calm - N/A   Clear
9:10 AM 61.9 °F 56.8 °F 84% 30.08 in 10.0 mi Calm Calm - N/A   Clear
9:35 AM 65.1 °F 57.2 °F 75% 30.08 in 10.0 mi Calm Calm - N/A   Scattered Clouds
9:55 AM 66.0 °F 56.7 °F 72% 30.08 in 10.0 mi Calm Calm - N/A   Clear
10:15 AM 67.8 °F 56.7 °F 67% 30.08 in 10.0 mi Calm Calm - N/A   Clear
10:35 AM 68.7 °F 57.4 °F 67% 30.08 in 10.0 mi Calm Calm - N/A   Clear
10:55 AM 69.4 °F 57.9 °F 67% 30.09 in 10.0 mi Calm Calm - N/A   Clear
11:15 AM 70.2 °F 58.5 °F 66% 30.08 in 10.0 mi Calm Calm - N/A   Clear
11:35 AM 71.8 °F 59.9 °F 66% 30.08 in 10.0 mi Calm Calm - N/A   Clear
11:55 AM 72.7 °F 59.4 °F 63% 30.09 in 10.0 mi WSW 4.6 mph - N/A   Clear
12:15 PM 73.8 °F 59.4 °F 61% 30.08 in 10.0 mi Calm Calm - N/A   Clear
12:35 PM 75.0 °F 59.7 °F 59% 30.07 in 10.0 mi Calm Calm - N/A   Clear
12:55 PM 75.7 °F 61.7 °F 62% 30.07 in 10.0 mi Calm Calm - N/A   Scattered Clouds
1:15 PM 76.6 °F 60.8 °F 58% 30.07 in 10.0 mi West 5.8 mph - N/A   Scattered Clouds
1:35 PM 77.4 °F 61.3 °F 58% 30.06 in 10.0 mi West 8.1 mph - N/A   Scattered Clouds
1:55 PM 76.1 °F 61.5 °F 60% 30.06 in 10.0 mi WSW 6.9 mph - N/A   Scattered Clouds
2:15 PM 77.2 °F 60.4 °F 56% 30.06 in 10.0 mi West 6.9 mph - N/A   Clear
2:35 PM 76.6 °F 59.9 °F 56% 30.07 in 10.0 mi Calm Calm - N/A   Mostly Cloudy
2:55 PM 76.8 °F 60.1 °F 56% 30.06 in 10.0 mi Calm Calm - N/A   Mostly Cloudy
3:15 PM 77.9 °F 59.9 °F 54% 30.06 in 10.0 mi Calm Calm - N/A   Mostly Cloudy
3:35 PM 79.3 °F 61.2 °F 54% 30.05 in 10.0 mi WSW 3.5 mph - N/A   Scattered Clouds
4:15 PM 76.8 °F 59.4 °F 55% 30.05 in 10.0 mi Calm Calm - N/A   Overcast
4:35 PM 78.4 °F 61.5 °F 56% 30.06 in 10.0 mi SSW 4.6 mph - N/A   Mostly Cloudy
4:55 PM 78.1 °F 62.2 °F 58% 30.06 in 10.0 mi WSW 4.6 mph - N/A   Scattered Clouds
5:15 PM 77.2 °F 60.4 °F 56% 30.06 in 10.0 mi SW 3.5 mph - N/A   Clear
5:35 PM 77.4 °F 61.3 °F 58% 30.06 in 10.0 mi WSW 3.5 mph - N/A   Clear
5:55 PM 77.2 °F 61.3 °F 58% 30.06 in 10.0 mi Calm Calm - N/A   Clear
6:15 PM 76.8 °F 63.7 °F 64% 30.06 in 10.0 mi SW 3.5 mph - N/A   Clear
6:35 PM 75.4 °F 62.4 °F 64% 30.07 in 10.0 mi SW 3.5 mph - N/A   Clear
6:55 PM 75.4 °F 62.2 °F 64% 30.07 in 10.0 mi Calm Calm - N/A   Clear
7:15 PM 73.8 °F 64.2 °F 72% 30.07 in 10.0 mi Calm Calm - N/A   Mostly Cloudy
7:55 PM 72.3 °F 66.4 °F 82% 30.08 in 10.0 mi Calm Calm - N/A   Mostly Cloudy
8:15 PM 71.1 °F 66.2 °F 85% 30.08 in 10.0 mi Calm Calm - N/A   Scattered Clouds
8:35 PM 70.5 °F 65.1 °F 83% 30.09 in 10.0 mi Calm Calm - N/A   Mostly Cloudy
8:55 PM 68.0 °F 64.2 °F 88% 30.09 in 10.0 mi Calm Calm - N/A   Scattered Clouds
9:15 PM 66.7 °F 63.5 °F 89% 30.09 in 10.0 mi Calm Calm - N/A   Clear
9:35 PM 65.7 °F 63.5 °F 93% 30.10 in 10.0 mi Calm Calm - N/A   Clear
9:55 PM 64.9 °F 63.0 °F 93% 30.11 in 10.0 mi Calm Calm - N/A   Scattered Clouds
10:15 PM 64.6 °F 62.8 °F 94% 30.11 in 10.0 mi Calm Calm - N/A   Overcast
10:35 PM 64.6 °F 63.0 °F 94% 30.11 in 10.0 mi Calm Calm - N/A   Overcast
10:55 PM 64.2 °F 62.6 °F 94% 30.11 in 10.0 mi Calm Calm - N/A   Overcast
11:15 PM 64.0 °F 62.2 °F 94% 30.11 in 10.0 mi Calm Calm - N/A   Overcast
11:35 PM 63.7 °F 62.4 °F 96% 30.11 in 10.0 mi Calm Calm - N/A   Mostly Cloudy
11:55 PM 63.5 °F 61.9 °F 94% 30.12 in 10.0 mi Calm Calm - N/A   Overcast